Location: Wien
(48.2082°N, 16.3738°E)
Time: 08:55:18
(UTC+02:00)

UNISAT 6 - Pass Details

Date: 27 April 2024
Orbit: 593 x 668 km, 97.7° (Epoch: 20 May)

Event Time Altitude Azimuth Distance (km) Brightness Sun altitude
Rises 04:09:44 0° 147° (SSE) 2,906 ? -14.0°
Reaches altitude 10° 04:12:01 10° 141° (SE) 1,991 ? -13.7°
Maximum altitude 04:16:07 43° 70° (ENE) 866 ? -13.1°
Drops below altitude 10° 04:20:09 10° 359° (N) 1,966 ? -12.6°
Sets 04:22:23 0° 353° (N) 2,865 ? -12.3°
